DW4596 Weather Reports


time (UTC)temp
C
wind
direction
speed
KPH
gust
KPH
rain 1hr
cm
rain 24hr
cm
rain mn
cm
humidity
%
barometer
mb
20260504041521 7 215 20.9 0.0 0.00 0.00 0.00 83 1006.7
20260504040015 7 227 16.1 0.0 0.00 0.00 0.00 84 1006.6
20260504034517 7 212 14.5 0.0 0.00 0.00 0.00 84 1006.6
20260504033016 7 233 12.9 0.0 0.00 0.00 0.00 84 1006.6
20260504031514 7 220 12.9 0.0 0.00 0.00 0.00 84 1006.6
20260504030016 7 231 12.9 0.0 0.00 0.00 0.00 83 1006.8
20260504024514 7 209 12.9 0.0 0.00 0.00 0.00 82 1006.9
20260504023012 7 232 16.1 0.0 0.00 0.00 0.00 79 1006.9
20260504021513 7 226 19.3 0.0 0.00 0.00 0.00 76 1006.9
20260504020009 8 184 12.9 0.0 0.00 0.00 0.00 73 1006.9
20260504014515 8 183 12.9 0.0 0.00 0.00 0.00 73 1006.9
20260504013018 8 192 14.5 0.0 0.00 0.00 0.00 73 1006.9
20260504011520 7 182 8.0 0.0 0.00 0.00 0.00 73 1006.9
20260504010012 7 188 3.2 0.0 0.00 0.00 0.00 70 1006.8
20260504004510 7 188 4.8 0.0 0.00 0.00 0.00 70 1006.8
20260504003008 7 198 4.8 0.0 0.00 0.00 0.00 67 1006.8
20260504001508 7 202 8.0 0.0 0.00 0.00 0.00 66 1007.0
20260504000008 8 209 11.3 0.0 0.00 0.00 0.00 62 1006.8
20260503234511 8 202 12.9 0.0 0.00 0.00 0.00 61 1006.8
20260503233010 8 221 16.1 0.0 0.00 0.00 0.00 59 1006.8
20260503231514 8 209 16.1 0.0 0.00 0.00 0.00 60 1006.9
20260503230010 8 197 14.5 0.0 0.00 0.00 0.00 58 1006.9
20260503224516 8 219 14.5 0.0 0.00 0.00 0.00 58 1006.9
20260503223012 8 198 19.3 0.0 0.00 0.00 0.00 53 1006.8
20260503221513 9 212 17.7 0.0 0.00 0.00 0.00 54 1006.8
20260503220010 9 214 19.3 0.0 0.00 0.00 0.00 54 1006.9
20260503214515 9 200 20.9 0.0 0.00 0.00 0.00 52 1006.9
20260503213009 9 204 19.3 0.0 0.00 0.00 0.00 51 1007.0
20260503211506 8 230 17.7 0.0 0.00 0.00 0.00 58 1007.0
20260503210005 8 204 20.9 0.0 0.00 0.00 0.00 61 1007.3
20260503204515 8 189 22.5 0.0 0.00 0.00 0.00 60 1007.4
20260503203006 8 217 22.5 0.0 0.00 0.00 0.00 64 1007.6
20260503201506 8 240 24.1 0.0 0.00 0.00 0.00 66 1007.7
20260503200005 8 211 20.9 0.0 0.00 0.00 0.00 60 1008.0
20260503194501 8 223 20.9 0.0 0.00 0.00 0.00 60 1008.0
20260503193058 8 196 20.9 0.0 0.00 0.00 0.00 57 1008.3
20260503191556 8 221 22.5 0.0 0.00 0.00 0.00 56 1008.5
20260503190054 7 197 24.1 0.0 0.00 0.00 0.00 55 1008.6
20260503184605 7 207 24.1 0.0 0.00 0.00 0.00 55 1008.8
20260503183057 7 194 24.1 0.0 0.00 0.00 0.00 54 1009.0
20260503181601 7 215 22.5 0.0 0.00 0.00 0.00 57 1009.1
20260503180105 8 221 22.5 0.0 0.00 0.00 0.00 58 1009.3
20260503174556 8 254 22.5 0.0 0.00 0.00 0.00 58 1009.3
20260503173104 7 211 20.9 0.0 0.00 0.00 0.00 55 1009.3
20260503171551 7 195 20.9 0.0 0.00 0.00 0.00 57 1009.4
20260503081533 4 279 9.7 0.0 0.00 0.00 0.03 70 1011.1
20260503071531 5 267 9.7 0.0 0.00 0.00 0.03 72 1011.1
20260503054536 5 249 9.7 0.0 0.00 0.00 0.03 74 1011.2
20260503053032 5 260 9.7 0.0 0.00 0.00 0.03 74 1011.3
20260503051527 5 254 8.0 0.0 0.00 0.00 0.03 76 1011.4
20260503050032 5 248 8.0 0.0 0.00 0.00 0.03 80 1011.6
20260503044527 5 238 8.0 0.0 0.00 0.00 0.03 80 1011.7
20260503043039 5 254 8.0 0.0 0.00 0.00 0.03 81 1011.8